AEHF-1 (USA 214)

Last updated on June 27, 2019, 3:44 a.m. UTC

1 36868U 10039A   19177.78372664  .00000034  00000-0  00000+0 0  9998
2 36868   1.9117 105.2973 0004142 342.9538 112.5077  1.00269673 32893
UTC
Height (km)
Latitude
Longitude
Inclination
Orbital Period
UTC large
Height (km)
Speed (km/s)
/
Latitude / Longitude
Inclination (degrees)
Orbital Period (minutes)
Azimuth
Elevation
Range (km)
Doppler Factor
iOS Compass Heading
iOS Angle

Next 30 passes for location: Hong Kong

Rise time Rise Azimuth (degrees) Set time Set Azimuth (degrees) Duration Max altitude (degrees)

No matching passes for this satellites